View from above orbital plane
|
View from above satellite
|
Ground track
|
The orbit data is extracted from the following two-line orbital elements,
1 46U 60007B 21021.18283839 -.00000006 00000-0 21942-4 0 9990
2 46 66.6893 178.2090 0214295 327.2626 31.5348 14.49359813170658
Epoch (UTC): | 21 January 2021 04:23:17 |
Eccentricity: | 0.0214295 |
inclination: | 66.6893° |
perigee height: | 575 km |
apogee height: | 880 km |
right ascension of ascending node: | 178.2090° |
argument of perigee: | 327.2626° |
revolutions per day: | 14.49359813 |
mean anomaly at epoch: | 31.5348° |
orbit number at epoch: | 17065 |
The dashed part of the orbit path shows where the satellite is in the earth's shadow,
|
|